1505030400.2,4666,14.88,73440.5,8.15,-4.45,-5.23,0,*42
1505030401.43,4667,14.88,73444.5,8.11,-5.15,-6.09,0,*48
1505030402.67,4668,14.88,73450.8,8.11,-5.81,-7.23,0,*43
1505030403.86,4669,14.88,73452.5,8.09,-6.43,-8.37,0,*4C
1505030405.09,4670,14.88,73454.3,8.09,-7.39,-9.45,0,*4C
1505030406.3,4671,14.88,73454.0,8.07,-8.21,-10.57,0,*7E
1505030407.49,4672,14.88,73450.3,8.05,-7.87,-10.23,0,*7F
1505030408.73,4673,14.88,73450.3,8.03,-7.73,-9.67,0,*4B
1505030409.96,4674,14.88,73448.8,8.03,-7.65,-9.19,0,*42
1505030411.17,4675,14.88,73448.8,8.01,-7.35,-8.33,0,*4D
1505030412.38,4676,14.88,73448.8,8.01,-7.11,-7.35,0,*41
1505030413.61,4677,14.88,73452.0,7.99,-6.47,-5.81,0,*41
1505030414.83,4678,14.88,73454.3,7.97,-5.69,-4.65,0,*44
1505030416.06,4679,14.88,73444.5,7.95,-5.11,-3.83,0,*47
1505030417.28,4680,14.88,73436.8,7.89,-3.75,-2.59,0,*4E
1505030418.52,4681,14.88,73436.0,7.89,-2.47,-1.91,0,*48
1505030419.7,4682,14.88,73434.0,7.89,-1.59,-1.25,0,*48
1505030420.88,4683,14.88,73432.8,7.85,-0.33,-0.41,0,*4B
1505030422.05,4684,14.88,73424.3,7.85,0.01,-0.41,0,*50
1505030423.27,4685,14.88,73434.8,7.83,0.17,-0.41,0,*60
1505030424.48,4686,14.88,73428.3,7.83,0.83,0.09,0,*7F
1505030425.7,4687,14.88,73426.8,7.81,0.95,0.33,0,*42
1505030426.88,4688,14.88,73420.8,7.81,0.59,0.09,0,*74
1505030428.07,4689,14.88,73420.8,7.79,0.87,0.43,0,*4F
1505030429.25,4690,14.88,73424.8,7.79,0.25,0.01,0,*79
1505030430.43,4691,14.88,73430.5,7.79,-0.33,-0.41,0,*4B
1505030431.63,4692,14.88,73432.5,7.77,-0.15,-0.11,0,*47
1505030432.86,4693,14.88,73432.0,7.77,0.13,0.29,0,*4B
1505030434.07,4694,14.88,73434.0,7.77,-0.53,-0.15,0,*47
1505030435.27,4695,14.88,73438.0,7.73,-0.69,-0.19,0,*47
1505030436.48,4696,14.88,73436.8,7.73,-0.53,0.17,0,*6E
1505030437.69,4697,14.88,73448.0,7.73,-0.15,0.79,0,*65
1505030438.9,4698,14.88,73446.5,7.73,-0.49,0.67,0,*6C
1505030440.13,4699,14.88,73446.3,7.73,0.17,1.55,0,*7B
1505030441.32,4700,14.88,73442.0,7.71,-0.15,1.51,0,*53
1505030442.51,4701,14.88,73446.5,7.71,-0.37,1.51,0,*52
1505030443.7,4702,14.88,73446.8,7.71,-0.65,1.43,0,*55
1505030444.92,4703,14.88,73450.5,7.67,-0.85,1.37,0,*5E
1505030446.11,4704,14.88,73446.5,7.71,-0.77,1.55,0,*57
1505030447.32,4705,14.88,73440.5,7.75,0.13,2.43,0,*79
1505030448.53,4706,14.88,73440.8,7.75,0.41,2.55,0,*7A
1505030449.75,4707,14.88,73444.8,7.79,0.55,2.43,0,*75
1505030450.98,4708,14.88,73450.8,7.83,0.59,2.05,0,*71
1505030452.23,4709,14.88,73446.0,7.83,0.91,2.05,0,*74
1505030453.48,4710,14.88,73448.8,7.87,-0.27,0.51,0,*6B
1505030454.68,4711,14.88,73454.8,7.89,-1.55,-0.85,0,*74
1505030455.91,4712,14.88,73444.0,7.89,-1.47,-0.85,0,*74
1505030457.1,4713,14.88,73446.0,7.93,-1.29,-0.41,0,*7E
1505030458.29,4714,14.88,73444.3,7.93,-2.79,-1.63,0,*4E
1505030459.47,4715,14.88,73446.3,7.93,-2.83,-1.33,0,*4F
1505030460.66,4716,14.88,73448.0,7.93,-3.19,-1.55,0,*4E
1505030461.85,4717,14.88,73446.3,7.93,-3.31,-1.63,0,*40
1505030463.1,4718,14.88,73438.5,7.93,-3.59,-2.03,0,*44
1505030464.29,4719,14.88,73432.0,7.97,-4.13,-2.99,0,*4B
1505030465.47,4720,14.88,73446.3,7.97,-4.13,-3.35,0,*46
1505030466.69,4721,14.88,73446.5,7.97,-5.31,-4.65,0,*44
1505030467.88,4722,14.88,73446.8,7.97,-5.35,-4.65,0,*43
1505030469.1,4723,14.88,73446.3,7.97,-5.15,-4.25,0,*44
1505030470.32,4724,14.88,73460.0,7.95,-4.57,-3.55,0,*46
1505030471.54,4725,14.88,73462.8,7.97,-3.87,-2.71,0,*48
1505030472.76,4726,14.88,73458.8,7.95,-3.27,-2.31,0,*47
1505030473.97,4727,14.88,73448.3,7.97,-2.51,-2.39,0,*4C
1505030475.21,4728,14.88,73444.5,7.95,-2.31,-3.59,0,*40
1505030476.45,4729,14.88,73442.8,7.95,-2.31,-4.69,0,*45
1505030477.67,4730,14.88,73440.8,7.95,-3.27,-6.43,0,*41
1505030478.91,4731,14.88,73440.5,7.95,-3.95,-7.69,0,*40
1505030480.11,4732,14.88,73428.5,7.95,-5.47,-9.19,0,*43
1505030481.36,4733,14.88,73432.5,7.89,-6.97,-10.75,0,*73
1505030482.61,4734,14.88,73440.5,7.87,-8.07,-11.23,0,*7F
1505030483.86,4735,14.88,73430.5,7.87,-9.19,-11.51,0,*75
1505030485.08,4736,14.88,73438.0,7.81,-10.57,-11.97,0,*48
1505030486.33,4737,14.88,73446.8,7.81,-11.59,-11.93,0,*42
1505030487.58,4738,14.88,73446.5,7.77,-12.07,-11.11,0,*46
1505030488.85,4739,14.88,73432.0,7.77,-11.89,-9.53,0,*7D
1505030490.05,4740,14.88,73442.8,7.75,-11.19,-7.99,0,*70
1505030491.29,4741,14.88,73438.8,7.73,-10.41,-6.51,0,*7E
1505030492.52,4742,14.88,73438.5,7.73,-9.89,-5.11,0,*46
1505030493.76,4743,14.88,73432.0,7.73,-11.67,-5.51,0,*7A
1505030494.97,4744,14.88,73432.8,7.75,-13.47,-5.61,0,*78
1505030496.21,4745,14.88,73436.8,7.73,-14.23,-4.73,0,*78
1505030497.42,4746,14.88,73426.5,7.67,-14.23,-3.67,0,*7C
1505030498.63,4747,14.88,73422.8,7.71,-13.29,-2.39,0,*7D
1505030499.84,4748,14.88,73428.8,7.75,-11.59,-0.73,0,*4F
1505030501.08,4749,14.88,73446.0,7.75,-11.37,-1.09,0,*7A
1505030502.35,4750,14.88,73436.8,7.77,-11.07,-1.39,0,*70
1505030503.57,4751,14.88,73442.3,7.77,-9.53,-0.61,0,*75
1505030504.78,4752,14.88,73440.3,7.81,-8.17,0.21,0,*57
1505030506.0,4753,14.88,73428.5,7.83,-8.81,-0.81,0,*7C
1505030507.21,4754,14.88,73428.5,7.87,-8.59,-0.73,0,*77
1505030508.45,4755,14.88,73424.0,7.87,-9.75,-1.95,0,*40
1505030509.64,4756,14.88,73422.3,7.89,-10.53,-2.19,0,*76
1505030510.82,4757,14.88,73422.8,7.93,-9.31,-0.57,0,*78
1505030512.0,4758,14.88,73454.3,7.93,-9.31,-0.29,0,*7E
1505030513.26,4759,14.88,73434.5,7.95,-8.11,0.59,0,*50
1505030514.47,4760,14.88,73438.0,7.97,-7.57,0.43,0,*5E
1505030515.65,4761,14.88,73434.5,7.97,-7.87,-0.77,0,*78
1505030516.83,4762,14.88,73432.5,7.97,-6.39,-0.53,0,*79
1505030518.04,4763,14.88,73426.0,7.97,-5.35,-1.01,0,*41
1505030519.3,4764,14.88,73428.8,7.95,-5.19,-1.87,0,*44
1505030520.53,4765,14.88,73418.0,7.95,-4.93,-2.39,0,*40
1505030521.74,4766,14.88,73410.0,7.93,-4.45,-2.07,0,*43
1505030522.94,4767,14.88,73418.3,7.89,-3.75,-1.71,0,*4F
1505030524.12,4768,14.88,73420.3,7.89,-3.07,-1.33,0,*43
1505030525.32,4769,14.88,73414.0,7.85,-1.87,0.01,0,*69
1505030526.54,4770,14.88,73406.3,7.85,-0.85,0.95,0,*6F
1505030527.73,4771,14.88,73408.0,7.85,0.09,1.59,0,*46
1505030528.97,4772,14.88,73408.5,7.87,0.47,1.71,0,*77
1505030530.19,4773,14.88,73410.3,7.87,0.97,2.05,0,*7B
1505030531.45,4774,14.88,73410.5,7.87,1.13,2.09,0,*4D
1505030532.68,4775,14.88,73412.0,7.89,1.59,2.25,0,*42
1505030533.91,4776,14.94,73422.8,7.93,1.33,1.85,0,*4F
1505030535.12,4777,14.88,73420.5,7.89,1.75,2.13,0,*4B
1505030536.35,4778,14.88,73422.3,7.89,1.85,2.21,0,*4A
1505030537.55,4779,14.88,73418.3,7.93,1.71,1.75,0,*49
1505030538.77,4780,14.88,73420.5,7.89,1.93,2.01,0,*48
1505030539.99,4781,14.88,73420.5,7.89,2.09,2.21,0,*4B
1505030541.22,4782,14.94,73424.5,7.89,2.43,2.43,0,*42
1505030542.45,4783,14.88,73422.3,7.89,2.73,2.81,0,*4E
1505030543.67,4784,14.88,73418.5,7.89,2.73,2.73,0,*44
1505030544.87,4785,14.88,73416.8,7.89,2.69,2.65,0,*49
1505030546.1,4786,14.88,73416.0,7.89,2.59,2.47,0,*49
1505030547.29,4787,14.88,73422.8,7.89,2.55,2.35,0,*41
1505030548.5,4788,14.88,73430.0,7.89,2.35,2.13,0,*4C
1505030549.72,4789,14.88,73430.3,7.89,2.09,1.71,0,*45
1505030550.91,4790,14.88,73424.5,7.85,1.05,0.71,0,*7F
1505030552.12,4791,14.88,73418.5,7.85,0.59,0.25,0,*47
1505030553.34,4792,14.88,73434.0,7.81,0.29,0.29,0,*4B
1505030554.54,4793,14.88,73420.0,7.77,0.25,0.01,0,*75
1505030555.79,4794,14.94,73430.3,7.77,1.09,0.83,0,*77
1505030557.03,4795,14.94,73430.3,7.73,0.55,0.25,0,*46
1505030558.22,4796,14.88,73434.5,7.67,0.17,-0.11,0,*6C
1505030559.41,4797,14.88,73426.8,7.67,1.05,0.79,0,*7C
1505030560.63,4798,14.88,73430.8,7.63,1.71,1.37,0,*4F
1505030561.85,4799,14.88,73428.3,7.63,1.67,1.21,0,*4E
1505030563.07,4800,14.88,73432.8,7.61,2.01,1.41,0,*46
1505030564.29,4801,14.88,73432.8,7.59,1.33,0.71,0,*7C
1505030565.51,4802,14.94,73428.0,7.59,1.67,0.83,0,*73
1505030566.72,4803,14.94,73432.5,7.59,1.71,0.67,0,*7F
1505030567.95,4804,14.88,73428.0,7.55,1.37,0.25,0,*70
1505030569.15,4805,14.94,73430.5,7.55,2.27,0.91,0,*7C
1505030570.37,4806,14.88,73428.8,7.55,1.93,0.37,0,*7F
1505030571.59,4807,14.88,73428.3,7.55,2.05,0.29,0,*7D
1505030572.85,4808,14.88,73432.8,7.53,1.33,-0.85,0,*59
1505030574.06,4809,14.88,73432.3,7.51,0.91,-1.67,0,*5E
1505030575.31,4810,14.94,73432.0,7.49,0.41,-2.59,0,*5C
1505030576.53,4811,14.94,73436.0,7.47,0.79,-2.79,0,*5A
1505030577.75,4812,14.94,73440.0,7.47,0.91,-3.83,0,*5B
1505030578.97,4813,14.88,73438.8,7.47,-0.77,-7.05,0,*75
1505030580.21,4814,14.88,73428.0,7.43,-2.07,-9.67,0,*49
1505030581.45,4815,14.88,73424.3,7.39,-3.27,-11.81,0,*77
1505030582.65,4816,14.88,73428.5,7.37,-4.69,-13.51,0,*78
1505030583.87,4817,14.88,73430.3,7.37,-6.69,-15.57,0,*7B
1505030585.12,4818,14.88,73416.0,7.35,-8.85,-17.79,0,*74
1505030586.33,4819,14.88,73416.8,7.35,-10.05,-18.21,0,*46
1505030587.57,4820,14.88,73426.3,7.35,-12.39,-19.65,0,*40
1505030588.84,4821,14.88,73424.8,7.39,-13.37,-19.23,0,*40
1505030590.08,4822,14.94,73436.0,7.47,-14.55,-19.17,0,*4E
1505030591.31,4823,14.94,73432.8,7.47,-16.59,-19.95,0,*4B
1505030592.54,4824,14.88,73428.0,7.51,-17.79,-20.15,0,*4A
1505030593.8,4825,14.94,73444.3,7.53,-20.43,-21.67,0,*40
1505030595.02,4826,14.94,73438.8,7.55,-21.23,-21.73,0,*47
1505030596.22,4827,14.94,73422.8,7.55,-21.73,-21.39,0,*4D
1505030597.44,4828,14.88,73430.3,7.59,-22.63,-21.83,0,*4D
1505030598.65,4829,14.94,73420.3,7.57,-23.39,-21.93,0,*4D
1505030599.91,4830,14.88,73406.8,7.57,-22.57,-20.53,0,*41
1505030601.1,4831,14.94,73410.5,7.59,-22.83,-20.69,0,*4E
1505030602.35,4832,14.88,73388.3,7.61,-22.97,-20.35,0,*4A
1505030603.57,4833,14.88,73382.3,7.61,-21.43,-18.41,0,*49
1505030604.82,4834,14.94,73394.3,7.61,-19.31,-15.95,0,*44
1505030606.04,4835,14.88,73392.5,7.67,-18.69,-15.85,0,*4E
1505030607.29,4836,14.94,73404.8,7.71,-17.21,-15.57,0,*46
1505030608.51,4837,14.88,73432.3,7.75,-18.17,-17.45,0,*48
1505030609.7,4838,14.94,73442.8,7.79,-17.35,-16.97,0,*4A
1505030610.92,4839,14.94,73438.8,7.79,-17.83,-17.97,0,*47
1505030612.18,4840,14.94,73446.0,7.83,-16.17,-17.35,0,*48
1505030613.4,4841,14.94,73436.5,7.85,-17.41,-19.99,0,*45
1505030614.63,4842,14.88,73430.3,7.85,-17.31,-20.99,0,*4B
1505030615.84,4843,14.94,73418.5,7.85,-17.31,-22.21,0,*4B
1505030617.09,4844,14.88,73418.5,7.81,-17.45,-23.53,0,*4F
1505030618.32,4845,14.94,73426.5,7.81,-17.93,-24.31,0,*46
1505030619.59,4846,14.88,73436.0,7.77,-18.59,-24.87,0,*48
1505030620.8,4847,14.94,73430.5,7.75,-18.73,-24.25,0,*4B
1505030622.02,4848,14.88,73438.5,7.75,-18.73,-23.33,0,*44
1505030623.26,4849,14.88,73438.3,7.75,-18.89,-22.17,0,*47
1505030624.45,4850,14.94,73444.5,7.79,-20.93,-23.59,0,*48
1505030625.67,4851,14.94,73438.3,7.77,-21.93,-23.79,0,*44
1505030626.92,4852,14.94,73434.5,7.77,-23.03,-24.31,0,*47
1505030628.13,4853,14.94,73402.3,7.77,-22.07,-22.83,0,*4C
1505030629.34,4854,14.88,73402.5,7.79,-20.79,-21.39,0,*4C
1505030630.54,4855,14.94,73426.5,7.81,-20.69,-21.13,0,*43
1505030631.78,4856,14.94,73442.3,7.83,-20.73,-21.33,0,*4B
1505030633.03,4857,14.94,73448.0,7.87,-19.41,-20.05,0,*41
1505030634.28,4858,14.94,73462.5,7.93,-18.55,-19.41,0,*45
1505030635.54,4859,14.94,73460.5,7.95,-19.31,-20.39,0,*44
1505030636.74,4860,14.94,73458.3,7.97,-18.83,-20.05,0,*4B
1505030637.96,4861,14.94,73452.3,8.01,-18.31,-19.47,0,*4F
1505030639.19,4862,14.88,73450.3,8.03,-18.69,-19.95,0,*4C
1505030640.41,4863,14.88,73442.8,8.03,-17.69,-18.83,0,*44
1505030641.6,4864,14.94,73440.3,8.05,-18.11,-19.13,0,*4D
1505030642.83,4865,14.94,73434.5,8.03,-17.69,-18.59,0,*45
1505030644.08,4866,14.94,73438.3,8.03,-17.17,-18.25,0,*44
1505030645.31,4867,14.88,73438.3,8.03,-15.75,-17.83,0,*40
1505030646.55,4868,14.94,73442.0,8.01,-15.43,-17.97,0,*4D
1505030647.8,4869,14.88,73438.8,7.99,-15.39,-18.07,0,*49
1505030649.04,4870,14.94,73440.8,7.99,-17.87,-20.79,0,*44
1505030650.27,4871,14.94,73436.3,7.97,-19.99,-22.47,0,*45
1505030651.52,4872,14.94,73436.8,7.95,-21.47,-22.77,0,*4F
1505030652.75,4873,14.88,73432.8,7.93,-23.19,-22.93,0,*4B
1505030654.01,4874,14.94,73438.8,7.89,-23.53,-22.17,0,*45
1505030655.21,4875,14.94,73428.5,7.89,-23.59,-21.17,0,*4D
1505030656.44,4876,14.94,73440.5,7.89,-23.23,-20.39,0,*4E
1505030657.69,4877,14.94,73440.3,7.87,-22.67,-19.27,0,*45
1505030658.95,4878,14.94,73444.5,7.87,-22.73,-18.59,0,*47
1505030660.21,4879,14.88,73454.8,7.87,-21.67,-16.83,0,*49
1505030661.4,4880,14.94,73454.0,7.89,-20.73,-15.63,0,*48
1505030662.61,4881,14.94,73436.3,7.89,-20.29,-14.75,0,*40
1505030663.81,4882,14.94,73428.0,7.89,-19.71,-13.55,0,*41
1505030665.04,4883,14.94,73416.8,7.93,-18.07,-11.67,0,*48
1505030666.3,4884,14.94,73430.3,7.89,-17.41,-11.07,0,*4F
1505030667.51,4885,14.94,73428.0,7.89,-15.35,-9.97,0,*7F
1505030668.71,4886,14.94,73434.0,7.89,-15.63,-11.01,0,*49
1505030669.93,4887,14.94,73416.0,7.93,-16.45,-11.33,0,*45
1505030671.13,4888,14.94,73416.0,7.89,-18.79,-12.89,0,*42
1505030672.35,4889,14.94,73418.5,7.89,-18.59,-12.47,0,*43
1505030673.58,4890,14.88,73412.5,7.93,-18.49,-12.83,0,*49
1505030674.77,4891,14.94,73412.5,7.89,-19.03,-14.19,0,*49
1505030676.03,4892,14.94,73422.5,7.95,-19.13,-15.01,0,*4E
1505030677.31,4893,14.94,73424.5,7.95,-19.57,-16.13,0,*4F
1505030678.56,4894,14.94,73418.0,7.97,-19.61,-16.65,0,*4E
1505030679.83,4895,14.94,73428.8,7.99,-20.79,-18.01,0,*4E
1505030681.07,4896,14.88,73430.0,7.99,-21.39,-17.63,0,*43
1505030682.32,4897,14.94,73428.8,7.99,-21.53,-16.41,0,*4F
1505030683.57,4898,14.94,73418.0,8.01,-22.17,-15.89,0,*4A
1505030684.82,4899,14.94,73424.5,8.01,-21.23,-13.61,0,*4F
1505030686.01,4900,14.94,73434.3,8.01,-19.71,-11.11,0,*47
1505030687.25,4901,14.94,73440.8,8.07,-19.41,-9.97,0,*74
1505030688.47,4902,14.94,73432.8,8.09,-17.35,-7.35,0,*72
1505030689.73,4903,14.94,73432.0,8.11,-14.93,-5.03,0,*72
1505030690.92,4904,14.94,73432.5,8.15,-12.03,-2.95,0,*76
1505030692.15,4905,14.94,73430.5,8.19,-9.49,-1.87,0,*4F
1505030693.38,4906,14.94,73428.8,8.23,-7.43,-1.87,0,*41
1505030694.59,4907,14.94,73422.3,8.27,-6.13,-2.55,0,*4C
1505030695.8,4908,14.94,73418.8,8.31,-6.77,-4.81,0,*49
1505030697.02,4909,14.88,73408.5,8.33,-8.71,-7.23,0,*49
1505030698.26,4910,14.94,73414.0,8.35,-9.11,-7.73,0,*45
1505030699.5,4911,14.94,73414.0,8.41,-8.93,-7.57,0,*4A
1505030700.7,4912,14.94,73424.3,8.47,-9.97,-8.71,0,*41
1505030701.98,4913,14.94,73428.5,8.51,-11.93,-11.07,0,*43
1505030703.25,4914,14.88,73424.3,8.51,-13.33,-11.93,0,*41
1505030704.47,4915,14.94,73428.0,8.53,-13.61,-12.25,0,*4B
1505030705.7,4916,14.94,73434.5,8.53,-13.33,-12.03,0,*4B
1505030706.93,4917,14.94,73430.8,8.53,-14.47,-12.93,0,*47
1505030708.18,4918,14.94,73428.5,8.51,-14.19,-12.61,0,*4C
1505030709.41,4919,14.94,73428.5,8.49,-13.51,-12.53,0,*4E
1505030710.64,4920,14.94,73424.5,8.49,-13.37,-13.19,0,*4B
1505030711.91,4921,14.94,73416.0,8.47,-13.33,-13.83,0,*43
1505030713.14,4922,14.94,73410.0,8.45,-13.29,-14.61,0,*42
1505030714.36,4923,14.94,73412.3,8.41,-13.43,-15.53,0,*4B
1505030715.57,4924,14.94,73408.5,8.39,-13.79,-15.99,0,*4C
1505030716.8,4925,14.94,73414.0,8.35,-12.89,-15.43,0,*48
1505030718.07,4926,14.94,73414.5,8.33,-13.87,-17.07,0,*40
1505030719.31,4927,14.88,73418.3,8.31,-12.53,-16.27,0,*48
1505030720.59,4928,14.94,73420.0,8.29,-11.93,-16.27,0,*41
1505030721.83,4929,14.94,73412.8,8.27,-12.71,-17.45,0,*44
1505030723.09,4930,14.94,73408.0,8.25,-13.29,-17.93,0,*49
1505030724.33,4931,14.94,73416.5,8.25,-13.15,-17.25,0,*4A
1505030725.55,4932,14.94,73412.8,8.19,-13.47,-17.17,0,*40
1505030726.78,4933,14.94,73412.0,8.15,-12.83,-16.27,0,*46
1505030728.03,4934,14.94,73416.3,8.11,-12.35,-15.63,0,*4B
1505030729.27,4935,14.94,73412.3,8.07,-11.01,-14.47,0,*4E
1505030730.49,4936,14.94,73404.5,8.03,-9.79,-14.11,0,*7C
1505030731.68,4937,14.94,73412.8,8.01,-8.59,-14.29,0,*77
1505030732.91,4938,14.94,73418.0,7.99,-7.87,-14.51,0,*75
1505030734.14,4939,14.88,73420.8,7.97,-7.65,-14.65,0,*71
1505030735.33,4940,14.94,73424.3,7.89,-6.85,-14.69,0,*73
1505030736.52,4941,14.94,73416.8,7.89,-6.43,-15.63,0,*73
1505030737.71,4942,14.94,73420.0,7.81,-6.39,-16.03,0,*70
1505030738.93,4943,14.94,73418.3,7.81,-6.09,-15.57,0,*70
1505030740.18,4944,14.94,73406.8,7.77,-6.85,-15.89,0,*79
1505030741.43,4945,14.94,73402.8,7.73,-6.63,-14.79,0,*7A
1505030742.67,4946,14.94,73410.8,7.67,-6.19,-13.29,0,*73
1505030743.9,4947,14.94,73406.8,7.63,-5.81,-11.81,0,*74
1505030745.09,4948,14.94,73408.8,7.59,-5.47,-10.89,0,*71
1505030746.32,4949,14.94,73410.3,7.59,-5.07,-10.01,0,*74
1505030747.51,4950,14.94,73402.3,7.55,-5.97,-10.49,0,*75
1505030748.71,4951,14.94,73390.5,7.51,-6.55,-10.45,0,*71
1505030749.96,4952,14.94,73410.0,7.49,-4.81,-7.91,0,*4F
1505030751.18,4953,14.94,73418.8,7.47,-4.49,-7.05,0,*49
1505030752.38,4954,14.94,73418.3,7.47,-4.45,-6.39,0,*4C
1505030753.6,4955,14.94,73416.5,7.43,-4.85,-6.31,0,*4D
1505030754.84,4956,14.94,73414.8,7.43,-3.59,-4.53,0,*4E
1505030756.06,4957,14.94,73410.5,7.41,-2.59,-3.63,0,*48
1505030757.29,4958,14.94,73412.0,7.43,-2.75,-4.37,0,*4D
1505030758.5,4959,14.94,73404.3,7.43,-1.71,-3.39,0,*42
1505030759.73,4960,14.94,73418.0,7.49,-1.33,-3.47,0,*4D
1505030760.98,4961,14.94,73422.3,7.53,-2.07,-4.61,0,*40
1505030762.22,4962,14.94,73404.3,7.53,-3.11,-6.63,0,*45
1505030763.41,4963,14.94,73414.3,7.55,-3.39,-7.83,0,*47
1505030764.65,4964,14.94,73410.8,7.57,-5.23,-10.57,0,*70
1505030765.92,4965,14.94,73406.5,7.57,-7.61,-13.87,0,*7B
1505030767.16,4966,14.94,73400.8,7.57,-9.15,-16.03,0,*7C
1505030768.4,4967,14.94,73388.0,7.57,-10.89,-17.21,0,*41
1505030769.61,4968,14.94,73370.5,7.55,-12.29,-17.87,0,*48
1505030770.84,4969,14.94,73376.3,7.55,-12.61,-17.83,0,*41
1505030772.03,4970,14.94,73392.0,7.59,-13.11,-18.69,0,*48
1505030773.23,4971,14.94,73390.3,7.59,-14.23,-20.05,0,*4E
1505030774.46,4972,14.94,73420.8,7.61,-16.41,-22.37,0,*43
1505030775.7,4973,14.94,73428.0,7.59,-18.35,-23.53,0,*47
1505030776.94,4974,14.94,73418.8,7.61,-20.19,-23.79,0,*46
1505030778.15,4975,14.94,73432.5,7.61,-20.05,-22.27,0,*40
1505030779.37,4976,14.94,73428.8,7.65,-20.05,-21.39,0,*4B
1505030780.57,4977,14.94,73436.5,7.67,-19.95,-20.89,0,*41
1505030781.83,4978,14.94,73444.8,7.73,-20.79,-21.33,0,*43
1505030783.1,4979,14.94,73440.8,7.77,-21.27,-21.53,0,*4A
1505030784.3,4980,14.94,73444.3,7.79,-20.69,-20.73,0,*4A
1505030785.54,4981,14.94,73440.8,7.83,-19.95,-19.81,0,*40
1505030786.79,4982,14.94,73444.3,7.87,-21.13,-20.83,0,*4A
1505030788.04,4983,14.94,73448.8,7.93,-22.21,-21.57,0,*44
1505030789.25,4984,14.94,73436.0,7.89,-23.75,-22.93,0,*43
1505030790.47,4985,14.94,73426.3,7.93,-23.03,-21.63,0,*44
1505030791.67,4986,14.94,73422.0,7.93,-22.87,-21.17,0,*49
1505030792.9,4987,14.94,73430.8,7.93,-22.53,-20.19,0,*4E
1505030794.14,4988,14.94,73436.3,7.93,-22.73,-19.81,0,*48
1505030795.39,4989,14.94,73440.5,7.97,-22.17,-18.59,0,*4B
1505030796.61,4990,14.94,73432.0,7.97,-23.43,-19.23,0,*4F
1505030797.86,4991,14.94,73434.0,7.95,-23.23,-18.07,0,*4D
1505030799.08,4992,14.94,73428.5,7.97,-22.87,-17.03,0,*48
1505030800.28,4993,14.94,73438.0,7.97,-22.37,-15.63,0,*46
1505030801.5,4994,14.94,73434.5,7.99,-20.69,-13.19,0,*4D
1505030802.72,4995,14.94,73442.3,7.99,-19.07,-11.11,0,*44
1505030803.98,4996,14.94,73446.3,7.99,-17.63,-9.41,0,*77
1505030805.22,4997,14.94,73448.8,8.01,-16.65,-8.51,0,*7F
1505030806.4,4998,14.94,73446.0,8.05,-15.15,-6.85,0,*77
1505030807.63,4999,14.94,73440.0,8.05,-14.15,-5.65,0,*7A
1505030808.84,5000,14.94,73426.5,8.07,-14.23,-5.35,0,*70
1505030810.06,5001,14.94,73418.0,8.09,-13.69,-4.77,0,*71
1505030811.24,5002,14.94,73422.5,8.15,-12.89,-3.91,0,*7F
1505030812.47,5003,14.94,73434.5,8.19,-12.79,-3.55,0,*75
1505030813.75,5004,14.94,73434.3,8.21,-14.47,-5.07,0,*73
1505030814.99,5005,14.94,73406.8,8.21,-16.23,-6.35,0,*70
1505030816.2,5006,14.94,73442.0,8.23,-15.63,-5.81,0,*7A
1505030817.41,5007,14.94,73420.3,8.23,-17.87,-7.95,0,*74
1505030818.67,5008,14.94,73428.0,8.21,-17.41,-7.57,0,*7D
1505030819.88,5009,14.94,73420.5,8.27,-17.31,-7.27,0,*7A
1505030821.12,5010,14.94,73424.5,8.27,-17.93,-7.61,0,*78
1505030822.35,5011,14.94,73420.3,8.29,-17.87,-7.05,0,*70
1505030823.56,5012,14.94,73404.8,8.31,-19.03,-7.65,0,*7E
1505030824.8,5013,14.94,73406.0,8.33,-19.37,-7.39,0,*73
1505030826.04,5014,14.94,73408.3,8.35,-18.59,-6.27,0,*75
1505030827.3,5015,14.94,73410.8,8.41,-19.31,-6.23,0,*7C
1505030828.54,5016,14.94,73406.0,8.41,-19.31,-5.47,0,*7E
1505030829.78,5017,14.94,73420.8,8.41,-18.01,-4.09,0,*76
1505030831.03,5018,14.94,73422.3,8.47,-18.01,-4.13,0,*74
1505030832.3,5019,14.94,73422.8,8.47,-16.23,-2.55,0,*7F
1505030833.54,5020,14.94,73414.8,8.47,-14.11,-0.85,0,*49
1505030834.79,5021,14.94,73416.5,8.51,-12.65,0.13,0,*68
1505030836.03,5022,14.94,73428.5,8.51,-12.75,-0.33,0,*45
1505030837.25,5023,14.94,73434.3,8.51,-11.19,0.75,0,*62
1505030838.5,5024,14.94,73450.8,8.55,-9.53,1.63,0,*60
1505030839.71,5025,14.94,73448.0,8.53,-8.71,1.55,0,*63
1505030840.91,5026,14.94,73436.5,8.53,-9.05,0.41,0,*56
1505030842.12,5027,14.94,73430.5,8.53,-6.73,1.37,0,*69
1505030843.34,5028,14.94,73412.8,8.55,-3.11,3.53,0,*61
1505030844.59,5029,14.94,73412.0,8.55,-1.43,4.01,0,*65
1505030845.82,5030,14.94,73404.0,8.57,-1.91,2.85,0,*6A
1505030847.06,5031,14.94,73408.3,8.59,-2.51,1.89,0,*65
1505030848.27,5032,14.94,73380.5,8.59,-1.79,2.27,0,*68
1505030849.47,5033,14.94,73376.3,8.57,-1.25,2.55,0,*6B
1505030850.64,5034,14.94,73378.0,8.57,-0.57,2.95,0,*54
1505030851.85,5035,14.94,73386.0,8.57,-1.21,2.13,0,*6B
1505030853.07,5036,14.94,73390.8,8.55,-2.03,0.97,0,*57
1505030854.31,5037,14.94,73390.8,8.55,0.13,2.81,0,*7D
1505030855.53,5038,14.94,73388.5,8.53,0.47,2.89,0,*7D
1505030856.73,5039,14.94,73392.8,8.53,-0.03,2.21,0,*63
1505030857.93,5040,14.94,73382.5,8.53,-0.73,1.33,0,*5A
1505030859.16,5041,14.94,73386.5,8.53,-1.01,0.75,0,*5C
1505030860.4,5042,14.94,73382.0,8.51,-1.99,-0.33,0,*73
1505030861.58,5043,14.94,73398.3,8.45,-1.71,0.01,0,*6D
1505030862.75,5044,14.94,73394.3,8.45,-1.67,0.01,0,*6D
1505030864.01,5045,14.94,73398.0,8.41,-1.39,0.21,0,*51
1505030865.19,5046,14.94,73398.0,8.45,-2.31,-0.69,0,*7C
1505030866.41,5047,14.94,73414.0,8.45,-3.23,-1.47,0,*42
1505030867.6,5048,14.94,73418.8,8.45,-3.19,-1.21,0,*44
1505030868.81,5049,14.94,73400.5,8.47,-5.55,-3.07,0,*4F
1505030870.0,5050,14.94,73400.5,8.49,-7.83,-4.57,0,*42
1505030871.27,5051,14.94,73400.0,8.51,-9.41,-5.31,0,*4B
1505030872.49,5052,14.94,73408.8,8.53,-10.57,-5.81,0,*7E
1505030873.71,5053,14.94,73412.3,8.55,-13.55,-7.83,0,*78
1505030874.97,5054,14.94,73414.0,8.55,-15.85,-9.37,0,*75
1505030876.18,5055,14.94,73416.3,8.53,-18.07,-10.97,0,*47
1505030877.41,5056,14.94,73422.8,8.53,-17.73,-10.67,0,*47
1505030878.65,5057,14.94,73424.8,8.51,-16.37,-9.61,0,*7B
1505030879.91,5058,14.94,73426.3,8.51,-12.79,-7.27,0,*76
1505030881.11,5059,14.94,73418.5,8.53,-12.21,-7.53,0,*7B
1505030882.34,5060,14.94,73414.8,8.55,-11.33,-7.53,0,*77
1505030883.56,5061,14.94,73402.3,8.57,-10.35,-7.39,0,*7F
1505030884.8,5062,14.94,73400.8,8.59,-9.45,-6.81,0,*4F
1505030886.06,5063,14.94,73404.8,8.59,-9.45,-6.97,0,*49
1505030887.28,5064,14.94,73406.0,8.57,-9.11,-6.55,0,*4F
1505030888.47,5065,14.94,73406.8,8.57,-8.71,-6.05,0,*4C
1505030889.68,5066,14.94,73402.5,8.55,-6.81,-4.33,0,*4B
1505030890.88,5067,14.94,73410.3,8.53,-4.93,-2.87,0,*44
1505030892.12,5068,14.94,73414.3,8.51,-3.11,-1.47,0,*4B
1505030893.3,5069,14.94,73418.8,8.49,-1.71,-0.53,0,*73
1505030894.5,5070,14.94,73418.0,8.49,-0.41,0.33,0,*62
1505030895.68,5071,14.94,73422.0,8.49,0.43,0.91,0,*44
1505030896.91,5072,14.94,73424.0,8.49,1.17,1.55,0,*4E
1505030898.11,5073,14.94,73428.8,8.49,1.43,1.79,0,*40
1505030899.33,5074,14.94,73434.8,8.49,1.67,2.25,0,*4B
1505030900.54,5075,14.94,73436.0,8.51,2.21,2.91,0,*4D
1505030901.79,5076,14.94,73436.0,8.51,1.59,2.17,0,*4C
1505030903.04,5077,14.94,73430.5,8.51,1.25,2.05,0,*45
1505030904.27,5078,14.94,73418.5,8.49,1.55,2.25,0,*46
1505030905.49,5079,14.94,73412.5,8.49,1.09,1.67,0,*4B
1505030906.75,5080,14.94,73424.8,8.47,0.91,1.37,0,*76
1505030907.94,5081,14.94,73426.8,8.45,1.01,1.59,0,*45
1505030909.13,5082,14.94,73424.5,8.39,0.97,1.51,0,*7B
1505030910.34,5083,14.94,73432.0,8.39,2.01,2.55,0,*40
1505030911.54,5084,14.94,73432.8,8.35,1.05,1.43,0,*48
1505030912.75,5085,14.94,73436.3,8.35,1.25,1.47,0,*4F
1505030914.0,5086,14.94,73436.8,8.33,1.71,1.85,0,*45
1505030915.24,5087,14.94,73432.3,8.33,1.59,1.63,0,*46
1505030916.46,5088,14.94,73434.8,8.29,1.41,1.21,0,*4D
1505030917.71,5089,14.94,73434.5,8.29,1.55,1.29,0,*41
1505030918.89,5090,14.94,73428.0,8.27,1.43,0.97,0,*74
1505030920.1,5091,14.94,73428.8,8.27,1.43,0.83,0,*70